カタログに戻る

CZ-2C DEB

運用中SSO
NORAD 39225·DEBRIS·🇨🇳 China

打ち上げ Jul 15, 2013 から Jiuquan Satellite Launch Center

Loading…

次のパス (今後24時間)

TLE

最新Source: Space-Track

元期: Sep 14, 2026, 12:16 UTC

1 39225U 13035F   26257.51162709  .00001278  00000-0  40706-3 0  9994
2 39225  98.2410 269.0777 0158166  96.2612 265.6616 14.34499068679842

AllMySatでCZ-2C DEBをリアルタイム追跡

Download on the App Store